Погода в Урале

Россия / Красноярский край     55°54′21″N   94°44′56″E
темп.,
°C
ветер,
м/с
пор.,
м/с
влажн.,
%
обл.,
%
осадки,
мм/ч
давл.,
гПа
погр.,
м
13 июня, вс
вс1301:00+9зсз1157100 0.0 101310
04:00+9з1159100 0.0 101210
07:00+12з1261100 0.0 1012145
10:00+17з344994 0.0 1011996
13:00+20зюз45385 0.0 10092524
16:00+20з4738100 0.0 10082621
19:00+14зсз71370100 0.1 1010871
22:00+11з71584100 0.3 1010946
14 июня, пн
пн1401:00+10зюз71492100 3.8 1010788
04:00+10зюз4896100 1.1 1010486
07:00+12ссз468729 2.9 1011626
10:00+13с57617 0.8 10131503
13:00+16ссв3643100 0.8 10132253
16:00+15в245598 0.1 1015876
19:00+15зюз2462100 0.1 1015136
22:00+10з22675 0.0 101721
15 июня, вт
вт1501:00+8з11724 0.0 101711
04:00+7зюз227589 0.0 101724
07:00+12з36655 0.0 1017220
10:00+17з465047 0.0 10161140
13:00+17зсз4653100 0.0 10161104
16:00+17з256286 0.0 1015573
19:00+14зсз358193 0.3 1016134
22:00+11з1188100 0.0 101611
16 июня, ср
ср1601:00+10ююз1190100 0.0 101512
04:00+11ю1191100 0.4 101526
07:00+11ююв3898100 4.1 1015285
10:00+11ююв3896100 2.8 1014452
13:00+13ююз4791100 3.3 1014634
16:00+13ююз3692100 0.0 1014391
19:00+14ююз3692100 0.0 1014325
22:00+12ю3496100 0.1 101389
17 июня, чт
чт1701:00+12ю249550 0.4 101399
04:00+11ю2396100 0.5 101262
07:00+14ююз35875 1.4 1012256
10:00+20зюз577350 0.4 1010866
13:00+22з577237 1.6 10081196
16:00+19зюз358390 1.1 1007131
19:00+21з378195 2.9 1006279
22:00+17зюз2389100 0.8 100634